TimeEST,TemperatureF,Dew PointF,Humidity,Sea Level PressureIn,VisibilityMPH,Wind Direction,Wind SpeedMPH,Gust SpeedMPH,PrecipitationIn,Events,Conditions,WindDirDegrees,DateUTC
12:52 AM,43.0,23.0,45,30.06,10.0,South,3.5,-,N/A,,Overcast,190,2013-03-05 05:52:00
2:52 AM,39.9,24.1,53,30.06,10.0,South,3.5,-,N/A,,Scattered Clouds,190,2013-03-05 07:52:00
3:52 AM,41.0,23.0,49,30.05,10.0,Calm,Calm,-,N/A,,Mostly Cloudy,0,2013-03-05 08:52:00
4:52 AM,41.0,26.1,55,30.04,10.0,SE,4.6,-,N/A,,Overcast,140,2013-03-05 09:52:00
5:52 AM,42.1,26.1,53,30.03,10.0,SE,5.8,-,N/A,,Overcast,140,2013-03-05 10:52:00
6:52 AM,42.1,27.0,55,30.03,10.0,SSE,4.6,-,N/A,,Overcast,150,2013-03-05 11:52:00
7:52 AM,43.0,28.9,58,30.02,10.0,South,4.6,-,N/A,,Overcast,170,2013-03-05 12:52:00
8:52 AM,45.0,30.9,58,30.03,10.0,South,4.6,-,N/A,,Overcast,180,2013-03-05 13:52:00
9:16 AM,44.6,30.2,57,30.02,10.0,SSW,11.5,-,N/A,,Overcast,200,2013-03-05 14:16:00
9:52 AM,45.0,36.0,71,30.00,10.0,SSW,6.9,-,0.00,,Overcast,200,2013-03-05 14:52:00
10:52 AM,45.0,37.9,76,30.00,7.0,WSW,4.6,-,0.01,Rain,Light Rain,250,2013-03-05 15:52:00
11:52 AM,45.0,39.9,82,29.97,8.0,SSW,3.5,-,0.01,Rain,Light Rain,210,2013-03-05 16:52:00
12:52 PM,48.0,42.1,80,29.93,10.0,Calm,Calm,-,0.00,,Overcast,0,2013-03-05 17:52:00
1:52 PM,50.0,41.0,71,29.89,10.0,SW,8.1,-,N/A,,Overcast,220,2013-03-05 18:52:00
2:52 PM,53.1,42.1,66,29.85,10.0,Variable,4.6,-,N/A,,Overcast,0,2013-03-05 19:52:00
3:52 PM,54.0,43.0,66,29.83,10.0,Calm,Calm,-,N/A,,Overcast,0,2013-03-05 20:52:00
4:52 PM,55.9,43.0,62,29.76,10.0,Variable,5.8,-,N/A,,Overcast,0,2013-03-05 21:52:00
5:52 PM,52.0,43.0,71,29.72,10.0,ENE,6.9,20.7,N/A,,Overcast,70,2013-03-05 22:52:00
6:52 PM,52.0,46.0,80,29.67,4.0,ESE,12.7,-,0.03,Rain,Rain,110,2013-03-05 23:52:00
7:18 PM,51.8,48.2,88,29.64,4.0,ESE,11.5,-,0.06,Rain,Light Rain,110,2013-03-06 00:18:00
7:52 PM,51.1,48.9,92,29.63,3.0,NW,12.7,17.3,0.11,Rain,Rain,320,2013-03-06 00:52:00
7:55 PM,50.0,48.2,94,29.64,2.5,NNW,13.8,20.7,0.02,Rain,Heavy Rain,330,2013-03-06 00:55:00
8:27 PM,46.4,44.6,93,29.64,7.0,NNE,6.9,-,0.21,Rain,Light Rain,30,2013-03-06 01:27:00
8:52 PM,46.9,45.0,93,29.65,7.0,Calm,Calm,-,0.21,,Overcast,0,2013-03-06 01:52:00
9:24 PM,46.4,44.6,93,29.66,2.5,NW,9.2,-,N/A,,Overcast,320,2013-03-06 02:24:00
9:37 PM,44.6,44.6,100,29.65,2.5,NW,8.1,-,N/A,,Overcast,320,2013-03-06 02:37:00
9:52 PM,45.0,44.1,97,29.65,2.5,NNW,6.9,-,N/A,,Overcast,330,2013-03-06 02:52:00
10:11 PM,44.6,44.6,100,29.64,2.5,Calm,Calm,-,N/A,,Overcast,0,2013-03-06 03:11:00
10:52 PM,44.1,43.0,96,29.63,2.5,NW,3.5,-,N/A,,Overcast,320,2013-03-06 03:52:00
11:52 PM,43.0,42.1,97,29.63,2.5,NW,8.1,-,N/A,,Overcast,320,2013-03-06 04:52:00